AZU1424 SBGO-SBSV

Flight info

Callsign AZU1424
Flight time 1h 44m
Altitude 37000
Route LODUV DCT UGTAK UZ19 DOTBI
Aircraft A21N/M-SDE3FGHIRWY/LB1

Departure

Time 2026-04-25 16:29
Airport Santa Genoveva International Airport (SBGO)

Arrival

Time 2026-04-25 18:13
Airport Deputado Luiz Eduardo Magalhães International Airport (SBSV)
Time Latitude Longitude Altitude Speed Heading
2026-04-25 16:16 -16.63007 -49.21512 2470 ft 0 kts 56°
2026-04-25 16:20 -16.63009 -49.21514 2470 ft 2 kts 56°
2026-04-25 16:20 -16.63017 -49.21527 2470 ft 2 kts 56°
2026-04-25 16:20 -16.63030 -49.21549 2470 ft 2 kts 56°
2026-04-25 16:21 -16.63043 -49.21558 2470 ft 2 kts 13°
2026-04-25 16:21 -16.63058 -49.21558 2470 ft 2 kts 339°
2026-04-25 16:21 -16.63065 -49.21554 2470 ft 1 kts 320°
2026-04-25 16:21 -16.63069 -49.21550 2470 ft 0 kts 322°
2026-04-25 16:24 -16.63066 -49.21553 2470 ft 1 kts 322°
2026-04-25 16:24 -16.63050 -49.21566 2470 ft 5 kts 323°
2026-04-25 16:24 -16.63006 -49.21594 2470 ft 9 kts 333°
2026-04-25 16:24 -16.62939 -49.21627 2470 ft 10 kts 325°
2026-04-25 16:25 -16.62921 -49.21699 2470 ft 12 kts 256°
2026-04-25 16:25 -16.62928 -49.21728 2470 ft 13 kts 256°
2026-04-25 16:25 -16.62966 -49.21911 2470 ft 17 kts 258°
2026-04-25 16:25 -16.62989 -49.22043 2470 ft 18 kts 265°
2026-04-25 16:26 -16.62966 -49.22173 2470 ft 19 kts 295°
2026-04-25 16:26 -16.62897 -49.22298 2470 ft 20 kts 300°
2026-04-25 16:26 -16.62821 -49.22433 2470 ft 21 kts 300°
2026-04-25 16:26 -16.62742 -49.22572 2470 ft 23 kts 301°
2026-04-25 16:27 -16.62660 -49.22720 2470 ft 23 kts 300°
2026-04-25 16:27 -16.62581 -49.22867 2470 ft 20 kts 284°
2026-04-25 16:27 -16.62655 -49.22973 2470 ft 12 kts 213°
2026-04-25 16:27 -16.62707 -49.22974 2470 ft 8 kts 123°
2026-04-25 16:28 -16.62718 -49.22955 2470 ft 0 kts 121°
2026-04-25 16:28 -16.62720 -49.22952 2470 ft 7 kts 121°
2026-04-25 16:28 -16.62885 -49.22659 2470 ft 83 kts 120°
2026-04-25 16:28 -16.63287 -49.21943 2470 ft 144 kts 120°
2026-04-25 16:29 -16.63878 -49.20892 2524 ft 187 kts 120°
2026-04-25 16:29 -16.64541 -49.19704 3039 ft 189 kts 118°
2026-04-25 16:29 -16.65153 -49.18531 3749 ft 184 kts 117°
2026-04-25 16:29 -16.65768 -49.17374 4375 ft 186 kts 119°
2026-04-25 16:30 -16.66400 -49.16151 4762 ft 201 kts 110°
2026-04-25 16:30 -16.66494 -49.14655 5115 ft 216 kts 75°
2026-04-25 16:30 -16.65763 -49.13241 5492 ft 232 kts 53°
2026-04-25 16:30 -16.64694 -49.11850 5801 ft 256 kts 50°
2026-04-25 16:31 -16.63514 -49.10392 6259 ft 274 kts 50°
2026-04-25 16:31 -16.62228 -49.08885 6956 ft 282 kts 47°
2026-04-25 16:31 -16.60886 -49.07382 7783 ft 285 kts 46°
2026-04-25 16:31 -16.59542 -49.05885 8585 ft 289 kts 46°
2026-04-25 16:32 -16.58170 -49.04350 9351 ft 293 kts 46°
2026-04-25 16:32 -16.56769 -49.02778 10152 ft 297 kts 46°
2026-04-25 16:32 -16.55363 -49.01198 10776 ft 305 kts 46°
2026-04-25 16:32 -16.53885 -48.99534 11163 ft 322 kts 47°
2026-04-25 16:33 -16.52332 -48.97783 11699 ft 333 kts 47°
2026-04-25 16:33 -16.50763 -48.96016 12376 ft 337 kts 47°
2026-04-25 16:33 -16.49163 -48.94214 13058 ft 341 kts 48°
2026-04-25 16:33 -16.47554 -48.92397 13685 ft 345 kts 47°
2026-04-25 16:34 -16.45913 -48.90542 14330 ft 348 kts 47°
2026-04-25 16:34 -16.44283 -48.88702 14981 ft 351 kts 47°
2026-04-25 16:34 -16.42625 -48.86832 15632 ft 353 kts 47°
2026-04-25 16:34 -16.40958 -48.84957 16272 ft 354 kts 47°
2026-04-25 16:35 -16.39303 -48.83068 16900 ft 356 kts 49°
2026-04-25 16:35 -16.37748 -48.81029 17487 ft 359 kts 54°
2026-04-25 16:35 -16.36375 -48.78874 18049 ft 362 kts 59°
2026-04-25 16:35 -16.35087 -48.76592 18604 ft 365 kts 60°
2026-04-25 16:36 -16.33819 -48.74311 19154 ft 368 kts 60°
2026-04-25 16:36 -16.33397 -48.73552 19331 ft 368 kts 60°
2026-04-25 16:36 -16.31253 -48.69695 20212 ft 373 kts 59°
2026-04-25 16:36 -16.29937 -48.67334 20719 ft 376 kts 59°
2026-04-25 16:37 -16.28634 -48.65002 21197 ft 379 kts 59°
2026-04-25 16:37 -16.27312 -48.62635 21680 ft 381 kts 59°
2026-04-25 16:37 -16.25975 -48.60244 22160 ft 384 kts 59°
2026-04-25 16:37 -16.24621 -48.57822 22658 ft 386 kts 59°
2026-04-25 16:38 -16.23274 -48.55418 23138 ft 389 kts 59°
2026-04-25 16:38 -16.21902 -48.52969 23617 ft 391 kts 60°
2026-04-25 16:38 -16.20535 -48.50528 24093 ft 394 kts 60°
2026-04-25 16:38 -16.19171 -48.48093 24561 ft 396 kts 60°
2026-04-25 16:39 -16.17778 -48.45608 25016 ft 399 kts 60°
2026-04-25 16:39 -16.16367 -48.43090 25478 ft 401 kts 60°
2026-04-25 16:39 -16.14966 -48.40591 25919 ft 403 kts 60°
2026-04-25 16:39 -16.13563 -48.38089 26339 ft 406 kts 60°
2026-04-25 16:40 -16.12125 -48.35527 26764 ft 408 kts 60°
2026-04-25 16:40 -16.10702 -48.32993 27180 ft 411 kts 60°
2026-04-25 16:40 -16.09259 -48.30423 27594 ft 413 kts 60°
2026-04-25 16:40 -16.07817 -48.27857 28000 ft 415 kts 60°
2026-04-25 16:41 -16.06347 -48.25242 28393 ft 417 kts 60°
2026-04-25 16:41 -16.05855 -48.24366 28522 ft 418 kts 60°
2026-04-25 16:41 -16.01939 -48.17396 29522 ft 424 kts 60°
2026-04-25 16:42 -16.00449 -48.14743 29896 ft 426 kts 60°
2026-04-25 16:42 -15.98950 -48.12077 30253 ft 428 kts 60°
2026-04-25 16:42 -15.97452 -48.09414 30597 ft 429 kts 60°
2026-04-25 16:42 -15.95934 -48.06721 30942 ft 431 kts 60°
2026-04-25 16:43 -15.94422 -48.04040 31308 ft 432 kts 60°
2026-04-25 16:43 -15.92902 -48.01345 31659 ft 433 kts 60°
2026-04-25 16:43 -15.91376 -47.98638 31996 ft 434 kts 60°
2026-04-25 16:43 -15.89863 -47.95956 32313 ft 435 kts 60°
2026-04-25 16:44 -15.88317 -47.93216 32625 ft 436 kts 59°
2026-04-25 16:44 -15.86794 -47.90518 33041 ft 435 kts 59°
2026-04-25 16:44 -15.85256 -47.87797 33517 ft 433 kts 59°
2026-04-25 16:44 -15.83737 -47.85110 33947 ft 432 kts 59°
2026-04-25 16:45 -15.82219 -47.82427 34331 ft 431 kts 59°
2026-04-25 16:45 -15.80715 -47.79768 34677 ft 430 kts 59°
2026-04-25 16:45 -15.79201 -47.77091 35016 ft 430 kts 59°
2026-04-25 16:45 -15.77683 -47.74410 35336 ft 430 kts 59°
2026-04-25 16:46 -15.76173 -47.71743 35636 ft 429 kts 59°
2026-04-25 16:46 -15.74658 -47.69067 35874 ft 430 kts 59°
2026-04-25 16:46 -15.73137 -47.66381 36086 ft 432 kts 60°
2026-04-25 16:46 -15.72638 -47.65501 36155 ft 432 kts 59°
2026-04-25 16:47 -15.70106 -47.61034 36487 ft 434 kts 60°
2026-04-25 16:47 -15.68583 -47.58347 36684 ft 434 kts 60°
2026-04-25 16:47 -15.67051 -47.55648 36872 ft 435 kts 59°
2026-04-25 16:47 -15.65516 -47.52943 37044 ft 436 kts 59°
2026-04-25 16:48 -15.62428 -47.47503 37126 ft 438 kts 59°
2026-04-25 16:48 -15.59340 -47.42070 37126 ft 438 kts 59°
2026-04-25 16:49 -15.56238 -47.36615 37123 ft 438 kts 59°
2026-04-25 16:49 -15.53148 -47.31187 37116 ft 438 kts 59°
2026-04-25 16:50 -15.50045 -47.25737 37108 ft 438 kts 59°
2026-04-25 16:50 -15.46968 -47.20338 37104 ft 437 kts 59°
2026-04-25 16:51 -15.43864 -47.14895 37097 ft 438 kts 59°
2026-04-25 16:51 -15.41798 -47.11275 37095 ft 438 kts 59°
2026-04-25 16:52 -15.37668 -47.04042 37092 ft 439 kts 59°
2026-04-25 16:52 -15.34570 -46.98622 37086 ft 439 kts 59°
2026-04-25 16:53 -15.29916 -46.90488 37080 ft 437 kts 59°
2026-04-25 16:54 -15.26827 -46.85095 37079 ft 437 kts 59°
2026-04-25 16:54 -15.23735 -46.79699 37072 ft 437 kts 59°
2026-04-25 16:55 -15.20641 -46.74301 37069 ft 437 kts 59°
2026-04-25 16:55 -15.17538 -46.68894 37069 ft 437 kts 59°
2026-04-25 16:56 -15.14428 -46.63478 37068 ft 437 kts 59°
2026-04-25 16:56 -15.11338 -46.58100 37068 ft 436 kts 59°
2026-04-25 16:57 -15.08237 -46.52708 37066 ft 436 kts 59°
2026-04-25 16:57 -15.05151 -46.47346 37065 ft 436 kts 59°
2026-04-25 16:58 -15.02054 -46.41967 37066 ft 436 kts 59°
2026-04-25 16:58 -14.98940 -46.36563 37069 ft 436 kts 59°
2026-04-25 16:59 -14.95837 -46.31181 37069 ft 436 kts 59°
2026-04-25 16:59 -14.92778 -46.25766 37067 ft 435 kts 62°
2026-04-25 17:00 -14.90198 -46.20118 37068 ft 435 kts 68°
2026-04-25 17:00 -14.88187 -46.14201 37074 ft 435 kts 72°
2026-04-25 17:01 -14.86358 -46.08207 37077 ft 435 kts 72°
2026-04-25 17:01 -14.84545 -46.02269 37081 ft 435 kts 72°
2026-04-25 17:02 -14.82724 -45.96316 37083 ft 435 kts 72°
2026-04-25 17:02 -14.80900 -45.90364 37082 ft 435 kts 72°
2026-04-25 17:03 -14.79080 -45.84434 37079 ft 435 kts 72°
2026-04-25 17:03 -14.77250 -45.78476 37076 ft 434 kts 72°
2026-04-25 17:04 -14.75428 -45.72548 37074 ft 434 kts 72°
2026-04-25 17:04 -14.73601 -45.66610 37074 ft 434 kts 72°
2026-04-25 17:05 -14.71776 -45.60690 37075 ft 434 kts 72°
2026-04-25 17:05 -14.69033 -45.51795 37078 ft 435 kts 72°
2026-04-25 17:06 -14.67207 -45.45883 37080 ft 434 kts 72°
2026-04-25 17:06 -14.65378 -45.39968 37076 ft 433 kts 72°
2026-04-25 17:07 -14.63536 -45.34018 37072 ft 434 kts 72°
2026-04-25 17:07 -14.61702 -45.28098 37069 ft 434 kts 72°
2026-04-25 17:08 -14.59874 -45.22199 37065 ft 433 kts 72°
2026-04-25 17:08 -14.58029 -45.16256 37063 ft 433 kts 72°
2026-04-25 17:09 -14.56201 -45.10370 37067 ft 433 kts 72°
2026-04-25 17:09 -14.54367 -45.04473 37065 ft 433 kts 72°
2026-04-25 17:10 -14.52528 -44.98569 37070 ft 433 kts 72°
2026-04-25 17:10 -14.50686 -44.92664 37060 ft 432 kts 72°
2026-04-25 17:11 -14.48847 -44.86768 37050 ft 433 kts 72°
2026-04-25 17:11 -14.47000 -44.80858 37031 ft 433 kts 72°
2026-04-25 17:12 -14.45169 -44.74999 37024 ft 433 kts 72°
2026-04-25 17:12 -14.43325 -44.69108 37019 ft 432 kts 72°
2026-04-25 17:13 -14.42091 -44.65172 37016 ft 432 kts 72°
2026-04-25 17:13 -14.39637 -44.57350 37015 ft 432 kts 72°
2026-04-25 17:14 -14.37778 -44.51433 37015 ft 432 kts 72°
2026-04-25 17:14 -14.35936 -44.45576 37015 ft 433 kts 72°
2026-04-25 17:15 -14.34079 -44.39674 37010 ft 433 kts 72°
2026-04-25 17:15 -14.32215 -44.33760 37010 ft 432 kts 72°
2026-04-25 17:16 -14.30359 -44.27876 37000 ft 432 kts 72°
2026-04-25 17:16 -14.28500 -44.21987 36992 ft 432 kts 72°
2026-04-25 17:17 -14.26647 -44.16127 36986 ft 432 kts 72°
2026-04-25 17:17 -14.24782 -44.10230 36983 ft 432 kts 72°
2026-04-25 17:18 -14.22932 -44.04375 36976 ft 432 kts 72°
2026-04-25 17:18 -14.21075 -43.98502 36972 ft 432 kts 72°
2026-04-25 17:19 -14.19212 -43.92620 36972 ft 432 kts 72°
2026-04-25 17:19 -14.17355 -43.86767 36969 ft 432 kts 72°
2026-04-25 17:20 -14.15489 -43.80886 36968 ft 432 kts 72°
2026-04-25 17:20 -14.13616 -43.74990 36967 ft 432 kts 72°
2026-04-25 17:21 -14.11754 -43.69139 36976 ft 432 kts 72°
2026-04-25 17:21 -14.09887 -43.63277 36981 ft 432 kts 72°
2026-04-25 17:22 -14.08636 -43.59348 36981 ft 432 kts 72°
2026-04-25 17:22 -14.06151 -43.51544 36980 ft 432 kts 72°
2026-04-25 17:23 -14.04277 -43.45668 36979 ft 432 kts 72°
2026-04-25 17:23 -14.02407 -43.39813 36980 ft 432 kts 72°
2026-04-25 17:24 -14.00532 -43.33953 36981 ft 432 kts 72°
2026-04-25 17:24 -13.98657 -43.28087 36981 ft 432 kts 72°
2026-04-25 17:25 -13.96774 -43.22207 36983 ft 433 kts 72°
2026-04-25 17:25 -13.94885 -43.16317 36985 ft 432 kts 72°
2026-04-25 17:26 -13.93010 -43.10474 36990 ft 434 kts 72°
2026-04-25 17:26 -13.91115 -43.04579 36994 ft 434 kts 72°
2026-04-25 17:27 -13.89208 -42.98648 36999 ft 434 kts 72°
2026-04-25 17:27 -13.87951 -42.94742 37003 ft 433 kts 72°
2026-04-25 17:28 -13.85430 -42.86917 37017 ft 433 kts 72°
2026-04-25 17:28 -13.83531 -42.81032 37028 ft 433 kts 72°
2026-04-25 17:29 -13.81635 -42.75158 37040 ft 435 kts 72°
2026-04-25 17:29 -13.79727 -42.69254 37047 ft 435 kts 72°
2026-04-25 17:30 -13.77833 -42.63398 37050 ft 434 kts 72°
2026-04-25 17:30 -13.75929 -42.57516 37051 ft 434 kts 72°
2026-04-25 17:31 -13.74021 -42.51629 37056 ft 434 kts 72°
2026-04-25 17:31 -13.72104 -42.45715 37055 ft 435 kts 72°
2026-04-25 17:32 -13.70202 -42.39855 37053 ft 435 kts 72°
2026-04-25 17:32 -13.68276 -42.33931 37047 ft 435 kts 72°
2026-04-25 17:33 -13.66363 -42.28055 37036 ft 435 kts 72°
2026-04-25 17:33 -13.64445 -42.22162 37031 ft 435 kts 72°
2026-04-25 17:34 -13.62521 -42.16252 37040 ft 436 kts 72°
2026-04-25 17:34 -13.60607 -42.10384 37060 ft 436 kts 72°
2026-04-25 17:35 -13.58680 -42.04485 37076 ft 436 kts 72°
2026-04-25 17:35 -13.56754 -41.98601 37094 ft 435 kts 72°
2026-04-25 17:36 -13.54818 -41.92685 37084 ft 435 kts 72°
2026-04-25 17:36 -13.52894 -41.86795 37073 ft 435 kts 72°
2026-04-25 17:37 -13.50977 -41.80938 37053 ft 436 kts 72°
2026-04-25 17:37 -13.49040 -41.75028 37034 ft 437 kts 72°
2026-04-25 17:38 -13.47743 -41.71072 37037 ft 437 kts 72°
2026-04-25 17:38 -13.45166 -41.63225 37058 ft 436 kts 72°
2026-04-25 17:39 -13.43231 -41.57338 37080 ft 436 kts 72°
2026-04-25 17:39 -13.41291 -41.51441 37094 ft 436 kts 72°
2026-04-25 17:40 -13.39349 -41.45540 37100 ft 437 kts 72°
2026-04-25 17:40 -13.37404 -41.39639 37094 ft 437 kts 72°
2026-04-25 17:41 -13.35459 -41.33743 37088 ft 437 kts 71°
2026-04-25 17:41 -13.33516 -41.27860 37082 ft 437 kts 71°
2026-04-25 17:42 -13.31561 -41.21941 37077 ft 436 kts 71°
2026-04-25 17:42 -13.29616 -41.16058 37065 ft 437 kts 71°
2026-04-25 17:43 -13.27666 -41.10168 37048 ft 437 kts 71°
2026-04-25 17:43 -13.25712 -41.04269 37032 ft 438 kts 71°
2026-04-25 17:44 -13.23747 -40.98342 37011 ft 438 kts 71°
2026-04-25 17:44 -13.21786 -40.92435 37003 ft 438 kts 71°
2026-04-25 17:45 -13.20481 -40.88505 36997 ft 438 kts 71°
2026-04-25 17:45 -13.17863 -40.80631 36993 ft 437 kts 71°
2026-04-25 17:46 -13.15914 -40.74769 36989 ft 438 kts 71°
2026-04-25 17:46 -13.13945 -40.68834 36993 ft 439 kts 71°
2026-04-25 17:47 -13.11990 -40.62952 37002 ft 439 kts 71°
2026-04-25 17:47 -13.10014 -40.57017 37011 ft 439 kts 71°
2026-04-25 17:48 -13.07062 -40.48171 37017 ft 438 kts 71°
2026-04-25 17:49 -13.05087 -40.42265 37012 ft 439 kts 71°
2026-04-25 17:49 -13.03105 -40.36342 37007 ft 440 kts 71°
2026-04-25 17:50 -13.01128 -40.30436 37010 ft 441 kts 71°
2026-04-25 17:50 -12.99128 -40.24471 37015 ft 440 kts 71°
2026-04-25 17:51 -12.97138 -40.18541 37016 ft 440 kts 71°
2026-04-25 17:51 -12.95147 -40.12612 37012 ft 440 kts 71°
2026-04-25 17:52 -12.93157 -40.06695 37005 ft 441 kts 71°
2026-04-25 17:52 -12.91171 -40.00794 36891 ft 438 kts 70°
2026-04-25 17:52 -12.90185 -39.97872 35985 ft 437 kts 71°
2026-04-25 17:53 -12.89180 -39.94899 34313 ft 444 kts 71°
2026-04-25 17:53 -12.88179 -39.91940 32470 ft 452 kts 72°
2026-04-25 17:53 -12.87158 -39.88916 30792 ft 456 kts 72°
2026-04-25 17:53 -12.86249 -39.85840 29607 ft 446 kts 79°
2026-04-25 17:54 -12.85781 -39.82766 28600 ft 434 kts 86°
2026-04-25 17:54 -12.85696 -39.79739 27518 ft 425 kts 91°
2026-04-25 17:54 -12.85726 -39.76762 26402 ft 419 kts 91°
2026-04-25 17:54 -12.85772 -39.73844 25320 ft 412 kts 91°
2026-04-25 17:55 -12.85815 -39.70962 24246 ft 406 kts 91°
2026-04-25 17:55 -12.85853 -39.68106 23172 ft 401 kts 91°
2026-04-25 17:55 -12.85888 -39.65278 22275 ft 391 kts 90°
2026-04-25 17:55 -12.85918 -39.62550 21818 ft 385 kts 90°
2026-04-25 17:56 -12.85944 -39.59795 21326 ft 382 kts 90°
2026-04-25 17:56 -12.85969 -39.57115 20824 ft 380 kts 91°
2026-04-25 17:56 -12.85994 -39.54392 20322 ft 379 kts 91°
2026-04-25 17:56 -12.86019 -39.51718 19830 ft 377 kts 91°
2026-04-25 17:57 -12.86044 -39.49039 19322 ft 376 kts 91°
2026-04-25 17:57 -12.86069 -39.46396 18805 ft 375 kts 91°
2026-04-25 17:57 -12.86093 -39.43724 18299 ft 374 kts 92°
2026-04-25 17:57 -12.86101 -39.42830 18123 ft 374 kts 92°
2026-04-25 17:58 -12.86143 -39.38424 17263 ft 372 kts 92°
2026-04-25 17:58 -12.86168 -39.35804 16746 ft 371 kts 92°
2026-04-25 17:58 -12.86193 -39.33163 16286 ft 368 kts 92°
2026-04-25 17:58 -12.86218 -39.30575 15814 ft 366 kts 92°
2026-04-25 17:59 -12.86242 -39.27965 15343 ft 363 kts 92°
2026-04-25 17:59 -12.86264 -39.25407 14891 ft 360 kts 91°
2026-04-25 17:59 -12.86286 -39.22873 14440 ft 356 kts 91°
2026-04-25 17:59 -12.86309 -39.20329 13989 ft 354 kts 91°
2026-04-25 18:00 -12.86328 -39.17855 13544 ft 352 kts 91°
2026-04-25 18:00 -12.86349 -39.15338 13086 ft 349 kts 91°
2026-04-25 18:00 -12.86368 -39.12886 12641 ft 346 kts 91°
2026-04-25 18:00 -12.86387 -39.10438 12206 ft 343 kts 91°
2026-04-25 18:01 -12.86405 -39.08012 11800 ft 339 kts 91°
2026-04-25 18:01 -12.86423 -39.05615 11382 ft 335 kts 91°
2026-04-25 18:01 -12.86441 -39.03234 10960 ft 332 kts 91°
2026-04-25 18:01 -12.86459 -39.00889 10577 ft 329 kts 91°
2026-04-25 18:02 -12.86476 -38.98550 10214 ft 323 kts 91°
2026-04-25 18:02 -12.86492 -38.96308 10096 ft 309 kts 91°
2026-04-25 18:02 -12.86507 -38.94173 9982 ft 295 kts 91°
2026-04-25 18:02 -12.86522 -38.92106 9726 ft 289 kts 91°
2026-04-25 18:03 -12.86566 -38.90039 9334 ft 286 kts 96°
2026-04-25 18:03 -12.86896 -38.88055 8966 ft 283 kts 105°
2026-04-25 18:03 -12.87498 -38.86144 8598 ft 281 kts 110°
2026-04-25 18:03 -12.88158 -38.84262 8237 ft 279 kts 110°
2026-04-25 18:04 -12.88814 -38.82412 7878 ft 276 kts 110°
2026-04-25 18:04 -12.89459 -38.80585 7530 ft 274 kts 110°
2026-04-25 18:04 -12.90101 -38.78757 7179 ft 272 kts 110°
2026-04-25 18:04 -12.90736 -38.76943 6826 ft 270 kts 110°
2026-04-25 18:05 -12.91371 -38.75121 6467 ft 267 kts 110°
2026-04-25 18:05 -12.91989 -38.73345 6124 ft 265 kts 110°
2026-04-25 18:05 -12.92607 -38.71567 5785 ft 262 kts 110°
2026-04-25 18:05 -12.93211 -38.69828 5451 ft 261 kts 110°
2026-04-25 18:06 -12.93817 -38.68081 5121 ft 259 kts 110°
2026-04-25 18:06 -12.94422 -38.66341 4784 ft 257 kts 110°
2026-04-25 18:06 -12.95024 -38.64611 4452 ft 256 kts 110°
2026-04-25 18:06 -12.95619 -38.62898 4117 ft 254 kts 110°
2026-04-25 18:07 -12.96184 -38.61214 3951 ft 243 kts 105°
2026-04-25 18:07 -12.96336 -38.59557 3901 ft 227 kts 87°
2026-04-25 18:07 -12.96097 -38.57977 3687 ft 222 kts 80°
2026-04-25 18:07 -12.95769 -38.56460 3488 ft 215 kts 79°
2026-04-25 18:08 -12.95443 -38.54989 3311 ft 208 kts 79°
2026-04-25 18:08 -12.95131 -38.53532 3142 ft 204 kts 80°
2026-04-25 18:08 -12.94839 -38.52112 2985 ft 204 kts 80°
2026-04-25 18:08 -12.94558 -38.50729 2896 ft 191 kts 80°
2026-04-25 18:09 -12.94299 -38.49441 2777 ft 176 kts 81°
2026-04-25 18:09 -12.94064 -38.48273 2729 ft 156 kts 81°
2026-04-25 18:09 -12.93852 -38.47212 2554 ft 148 kts 81°
2026-04-25 18:09 -12.93785 -38.46874 2490 ft 147 kts 81°
2026-04-25 18:10 -12.93450 -38.45195 2208 ft 142 kts 82°
2026-04-25 18:10 -12.93253 -38.44210 2024 ft 141 kts 82°
2026-04-25 18:10 -12.93055 -38.43220 1846 ft 141 kts 81°
2026-04-25 18:10 -12.92858 -38.42237 1664 ft 140 kts 81°
2026-04-25 18:11 -12.92661 -38.41259 1486 ft 140 kts 82°
2026-04-25 18:11 -12.92465 -38.40280 1305 ft 140 kts 82°
2026-04-25 18:11 -12.92266 -38.39290 1128 ft 140 kts 82°
2026-04-25 18:11 -12.92071 -38.38316 953 ft 139 kts 81°
2026-04-25 18:12 -12.91875 -38.37343 771 ft 140 kts 82°
2026-04-25 18:12 -12.91673 -38.36365 600 ft 141 kts 81°
2026-04-25 18:12 -12.91491 -38.35368 420 ft 143 kts 82°
2026-04-25 18:12 -12.91284 -38.34370 246 ft 142 kts 81°
2026-04-25 18:13 -12.91085 -38.33387 75 ft 140 kts 81°
2026-04-25 18:13 -12.90900 -38.32447 39 ft 121 kts 77°
2026-04-25 18:13 -12.90859 -38.32154 45 ft 7 kts 194°
2026-04-25 18:14 -12.90948 -38.32240 42 ft 14 kts 217°
2026-04-25 18:14 -12.91025 -38.32315 40 ft 16 kts 244°
2026-04-25 18:14 -12.91055 -38.32432 39 ft 17 kts 258°
2026-04-25 18:14 -12.91080 -38.32560 38 ft 18 kts 258°
2026-04-25 18:15 -12.91106 -38.32688 39 ft 18 kts 258°
2026-04-25 18:15 -12.91132 -38.32819 39 ft 19 kts 258°
2026-04-25 18:15 -12.91159 -38.32957 40 ft 19 kts 258°
2026-04-25 18:15 -12.91185 -38.33087 41 ft 14 kts 258°
2026-04-25 18:16 -12.91221 -38.33172 43 ft 12 kts 199°
2026-04-25 18:16 -12.91305 -38.33200 44 ft 12 kts 206°
2026-04-25 18:16 -12.91354 -38.33225 44 ft 0 kts 207°